Accueil
METAR-TAF:

METAR-TAF

Aéroports :

Aérodrome de Melun-Villaroche

Melun, France

latitude: 48-37N, longitude: 002-41E, altitude: 95 m

Observation

Le bulletin a été fait il y a 38 minutes, à 19:00 UTC
Vent 6 kt de nord
Température 13°C
Humidité 88%
Pression 1025 hPa
Visibilité: 6000 m

METAR: LFPM 191900Z AUTO 35006KT 6000 NSC 13/11 Q1025

Heure: 21:38 (19:38 UTC)


TAF: absent

Observations et prévisions météorologiques de plus de 4000 aéroports (messages METAR et TAF).

Les stations disponibles sont représentées par des disques jaunes et rouges sur la carte.

Passer la souris dessus pour voir le nom de la station.

Cliquer dessus pour voir les observations et prévisions météorologiques.

Pour changer de carte: cliquez sur les boutons verts avec une croix noire pour zoomer, sur le bouton vert avec un tiret pour effectuer un zoom arrière, ou sur les flèches vertes pour les cartes adjacentes.


METAR-TAF: